User: anonymous   Login
Location: Unspecified
(0.0000°N, 0.0000°E)
Time: 05:17:29
(UTC+00:00)
Language:

CHUBUSAT 1 - Orbit

View from above orbital plane
View from above orbital plane
View from above satellite
View from above satellite

Ground track
Ground track

The orbit data is extracted from the following two-line orbital elements,

1 40300U 14070C   19083.85944015  .00000405  00000-0  20718-4 0  9997
2 40300  97.3346 160.1905 0020177   2.5705  61.1980 15.21959490242962
Epoch (UTC): 24 March 2019 20:37:35
Eccentricity: 0.0020177
inclination: 97.3346°
perigee height: 486 km
apogee height: 514 km
right ascension of ascending node: 160.1905°
argument of perigee: 2.5705°
revolutions per day: 15.21959490
mean anomaly at epoch: 61.1980°
orbit number at epoch: 24296

The dashed part of the orbit path shows where the satellite is in the earth's shadow,  

DLR